This is the latest recevied weather packets stored in our database for station/object NW6UP. If no packets are shown the sender has not sent any weather packets the latest 10 day(s).
| Time | Temp. | Humidity | Pressure | Rain* | Wind** | Luminosity | Snow |
|---|---|---|---|---|---|---|---|
| 1777961065 | 13.33° C | 75% | 0 hPa | 0 mm | - | - | - |
| 1777958665 | 13.89° C | 73% | 0 hPa | 0 mm | - | - | - |
| 1777957465 | 13.89° C | 73% | 0 hPa | 0 mm | - | - | - |
| 1777956265 | 13.89° C | 72% | 1014.4 hPa | 0 mm | - | - | - |
| 1777955066 | 13.89° C | 71% | 0 hPa | 0 mm | - | - | - |
| 1777953866 | 14.44° C | 67% | 1014 hPa | 0 mm | - | - | - |
| 1777952668 | 15° C | 64% | 1013.9 hPa | 0 mm | - | - | - |
| 1777951466 | 15.56° C | 59% | 0 hPa | 0 mm | - | - | - |
| 1777949068 | 16.11° C | 56% | 0 hPa | 0 mm | - | - | - |
| 1777947866 | 16.67° C | 55% | 0 hPa | 0 mm | - | - | - |
| 1777946665 | 17.22° C | 52% | 0 hPa | 0 mm | - | - | - |
| 1777945466 | 17.78° C | 52% | 0 hPa | 0 mm | - | - | - |
| 1777944266 | 18.89° C | 51% | 0 hPa | 0 mm | - | - | - |
| 1777943066 | 18.89° C | 51% | 0 hPa | 0 mm | - | - | - |
| 1777941866 | 18.89° C | 52% | 0 hPa | 0 mm | - | - | - |
| 1777940667 | 18.89° C | 54% | 1013.9 hPa | 0 mm | - | - | - |
| 1777939465 | 18.89° C | 53% | 0 hPa | 0 mm | - | - | - |
| 1777938265 | 19.44° C | 51% | 0 hPa | 0 mm | - | - | - |
| 1777937067 | 20° C | 49% | 1013.7 hPa | 0 mm | - | - | - |
| 1777935867 | 20° C | 49% | 1013.6 hPa | 0 mm | - | - | - |
| 1777934667 | 20.56° C | 48% | 0 hPa | 0 mm | - | - | - |
| 1777933465 | 20° C | 50% | 0 hPa | 0 mm | - | - | - |
| 1777932266 | 20.56° C | 46% | 1014.3 hPa | 0 mm | - | - | - |
| 1777931066 | 20° C | 48% | 1014.3 hPa | 0 mm | - | - | - |
| 1777929866 | 20° C | 48% | 1014.4 hPa | 0 mm | - | - | - |
* Rain latest hour (hover to see other rain measurements)
** Current wind speed in m/s (hover to see current wind gust speed)